CW6259 Weather Reports


Display with metric or nautical units.
time (UTC)temp
F
wind
direction
speed
MPH
gust
MPH
rain 1hr
in
rain 24hr
in
rain mn
in
humidity
%
barometer
mb
20191018070428 50 180 1.0 6.0 0.00 0.07 0.00 87 1006.3
20191018065928 50 236 3.0 9.0 0.00 0.07 0.00 86 1006.2
20191018065428 50 207 1.0 12.0 0.00 0.07 0.00 86 1006.1
20191018064928 50 238 0.0 12.0 0.00 0.07 0.00 85 1006.3
20191018064428 50 233 2.0 9.0 0.00 0.07 0.00 86 1006.3
20191018063928 49 217 1.0 11.0 0.00 0.07 0.00 87 1006.1
20191018063428 49 265 8.0 9.0 0.00 0.07 0.00 88 1006.1
20191018062928 49 233 0.0 9.0 0.00 0.07 0.00 88 1005.9
20191018062428 49 186 1.0 8.0 0.00 0.07 0.00 88 1005.8
20191018061928 49 197 0.0 8.0 0.00 0.07 0.00 88 1005.9
20191018061428 50 103 2.0 4.0 0.00 0.07 0.00 88 1006.1
20191018060928 50 191 0.0 7.0 0.00 0.07 0.00 92 1006.1
20191018060428 50 218 7.0 6.0 0.00 0.07 0.00 89 1006.2
20191018055928 50 217 0.0 7.0 0.00 0.07 0.00 89 1006.2
20191018055428 50 252 0.0 5.0 0.00 0.07 0.00 89 1006.0
20191018054928 50 250 1.0 6.0 0.00 0.07 0.00 89 1005.8
20191018054428 50 240 0.0 7.0 0.00 0.07 0.00 89 1005.7
20191018053928 50 236 1.0 5.0 0.00 0.07 0.00 89 1005.6
20191018053428 50 189 1.0 6.0 0.00 0.07 0.00 89 1005.5
20191018052928 50 236 3.0 9.0 0.00 0.07 0.00 90 1005.4
20191018052428 50 254 0.0 4.0 0.00 0.07 0.00 90 1005.3
20191018051928 50 242 0.0 3.0 0.00 0.07 0.00 90 1005.3
20191018051428 50 241 0.0 6.0 0.00 0.07 0.00 90 1005.3
20191018050928 50 179 4.0 9.0 0.00 0.07 0.00 90 1005.2
20191018050428 50 233 3.0 9.0 0.00 0.07 0.00 90 1005.2
20191018045928 50 248 2.0 7.0 0.00 0.07 0.00 90 1005.4
20191018045428 50 222 2.0 4.0 0.00 0.07 0.00 90 1005.5
20191018044928 50 227 3.0 5.0 0.00 0.07 0.00 90 1005.4
20191018044428 50 238 1.0 7.0 0.00 0.07 0.00 90 1005.3
20191018043928 50 236 1.0 13.0 0.00 0.07 0.00 89 1005.3
20191018043428 50 234 2.0 13.0 0.00 0.07 0.00 89 1005.2
20191018042928 50 282 8.0 12.0 0.00 0.07 0.00 89 1005.0
20191018042428 50 242 5.0 15.0 0.00 0.07 0.00 89 1005.0
20191018041928 49 207 5.0 9.0 0.00 0.07 0.00 89 1004.8
20191018041428 49 240 8.0 13.0 0.00 0.07 0.00 88 1004.8
20191018040928 49 227 3.0 13.0 0.00 0.07 0.00 88 1004.7
20191018040428 49 209 0.0 10.0 0.00 0.07 0.00 88 1004.6
20191018035928 50 231 5.0 18.0 0.00 0.07 0.00 87 1004.5
20191018035428 50 202 2.0 14.0 0.00 0.07 0.00 87 1004.4
20191018034928 50 232 0.0 17.0 0.00 0.07 0.00 86 1004.3
20191018034428 50 236 11.0 18.0 0.00 0.07 0.00 86 1004.0
20191018033928 50 231 3.0 13.0 0.00 0.07 0.00 87 1003.9
20191018033428 51 213 3.0 17.0 0.00 0.07 0.00 87 1003.8
20191018032928 51 226 0.0 17.0 0.00 0.07 0.00 87 1003.6
20191018032428 51 218 1.0 10.0 0.00 0.07 0.00 87 1003.5
20191018031928 51 205 2.0 12.0 0.00 0.07 0.00 87 1003.4
20191018031428 51 234 4.0 13.0 0.00 0.07 0.00 88 1003.2
20191018030928 51 234 1.0 11.0 0.00 0.07 0.00 88 1003.1
20191018030428 52 234 0.0 9.0 0.00 0.07 0.00 89 1002.9
20191018025928 52 196 2.0 13.0 0.00 0.07 0.00 89 1002.9
20191018025428 52 246 2.0 11.0 0.00 0.07 0.00 89 1002.7
20191018024928 52 245 1.0 17.0 0.00 0.07 0.00 89 1002.6
20191018024428 52 208 1.0 9.0 0.00 0.07 0.00 89 1002.5
20191018023928 52 167 1.0 15.0 0.00 0.07 0.00 88 1002.3
20191018023428 52 186 0.0 15.0 0.00 0.07 0.00 88 1002.1
20191018022928 52 237 3.0 12.0 0.00 0.07 0.00 89 1002.2
20191018022428 52 189 6.0 8.0 0.00 0.07 0.00 89 1002.5
20191018021928 52 117 2.0 9.0 0.00 0.07 0.00 89 1002.3
20191018021428 52 233 1.0 12.0 0.00 0.07 0.00 89 1002.6
20191018020928 52 196 2.0 10.0 0.01 0.08 0.00 88 1002.5
20191018020429 52 213 2.0 6.0 0.02 0.08 0.00 89 1002.2
20191018015928 52 198 0.0 14.0 0.02 0.08 0.00 89 1002.3
20191018015428 52 210 0.0 9.0 0.03 0.08 0.00 89 1002.4
20191018014928 52 196 0.0 9.0 0.02 0.07 0.00 89 1002.3
20191018014428 52 179 1.0 10.0 0.02 0.07 0.00 89 1002.3
20191018013928 52 205 0.0 7.0 0.02 0.07 0.00 89 1002.4
20191018013428 51 180 0.0 6.0 0.02 0.07 0.00 90 1002.4
20191018012928 52 115 2.0 6.0 0.02 0.07 0.00 90 1002.4
20191018012428 52 125 1.0 7.0 0.02 0.07 0.00 89 1002.4
20191018011928 52 171 1.0 8.0 0.02 0.07 0.00 89 1002.5
20191018011428 52 149 0.0 7.0 0.02 0.07 0.00 88 1002.5
20191018010928 52 146 3.0 9.0 0.01 0.07 0.00 87 1002.7
20191018010428 53 94 2.0 8.0 0.00 0.06 0.00 86 1002.7
20191018005928 53 218 0.0 8.0 0.00 0.07 0.00 85 1002.8
20191018005428 53 175 2.0 7.0 0.00 0.06 0.00 85 1002.7
20191018004928 53 167 0.0 3.0 0.00 0.06 0.00 84 1002.8
20191018004428 53 201 3.0 4.0 0.00 0.07 0.00 84 1002.9
20191018003928 53 146 0.0 9.0 0.00 0.09 0.00 84 1003.0
20191018003428 53 119 0.0 7.0 0.00 0.11 0.00 84 1003.0
20191018002928 54 168 0.0 5.0 0.00 0.14 0.00 84 1003.0
20191018002428 54 101 0.0 6.0 0.00 0.14 0.00 84 1003.1
20191018001928 54 148 2.0 6.0 0.00 0.18 0.00 84 1003.2
20191018001428 54 156 3.0 6.0 0.00 0.19 0.00 83 1003.3
20191018000928 54 138 0.0 7.0 0.00 0.19 0.00 83 1003.4
20191018000428 54 200 3.0 10.0 0.00 0.19 0.00 83 1003.5
20191017235928 54 169 4.0 12.0 0.00 0.19 0.00 83 1003.7
20191017235428 54 188 2.0 10.0 0.00 0.19 0.00 83 1003.7
20191017234928 55 221 0.0 6.0 0.00 0.19 0.00 83 1003.7
20191017234428 55 195 1.0 4.0 0.00 0.19 0.00 84 1003.7
20191017233928 55 168 2.0 9.0 0.00 0.19 0.00 84 1003.7
20191017233428 55 150 0.0 9.0 0.00 0.19 0.00 84 1003.6
20191017232928 55 88 0.0 10.0 0.00 0.19 0.00 84 1003.7
20191017232428 55 142 9.0 11.0 0.00 0.19 0.00 84 1003.6
20191017231928 55 187 1.0 9.0 0.00 0.19 0.00 84 1003.7
20191017231428 55 115 3.0 11.0 0.00 0.19 0.00 85 1003.7
20191017230928 54 212 4.0 11.0 0.00 0.19 0.00 88 1003.9
20191017230428 54 195 9.0 13.0 0.00 0.19 0.00 87 1004.0
20191017225928 53 206 3.0 6.0 0.00 0.19 0.00 88 1003.9
20191017225428 54 192 0.0 10.0 0.00 0.19 0.00 88 1004.0
20191017224928 54 259 1.0 12.0 0.00 0.19 0.00 87 1003.8
20191017224428 54 173 0.0 10.0 0.00 0.19 0.00 87 1003.9
20191017223928 54 280 0.0 10.0 0.00 0.19 0.00 87 1003.9
20191017223428 54 261 0.0 13.0 0.00 0.19 0.00 87 1004.0
20191017222928 54 236 3.0 9.0 0.00 0.19 0.00 88 1004.0
20191017222428 54 222 0.0 12.0 0.00 0.19 0.00 87 1004.1
20191017221928 54 245 4.0 9.0 0.00 0.19 0.00 87 1004.1
20191017221428 54 242 0.0 7.0 0.00 0.19 0.00 88 1004.1
20191017220928 54 175 0.0 7.0 0.00 0.19 0.00 88 1004.1
20191017220428 54 252 0.0 7.0 0.00 0.18 0.00 87 1004.1
20191017215928 54 239 0.0 11.0 0.00 0.18 0.00 85 1004.1
20191017215428 54 287 3.0 11.0 0.00 0.18 0.00 83 1004.2
20191017214928 55 248 0.0 9.0 0.00 0.18 0.00 82 1004.2
20191017214428 55 232 4.0 19.0 0.00 0.18 0.00 82 1004.3
20191017213928 55 192 2.0 8.0 0.00 0.18 0.00 82 1004.3
20191017213428 55 227 0.0 8.0 0.00 0.18 0.00 82 1004.2
20191017212928 55 276 2.0 9.0 0.00 0.18 0.00 82 1004.1
20191017212428 55 229 0.0 9.0 0.00 0.18 0.00 82 1004.2
20191017211928 55 167 4.0 9.0 0.00 0.18 0.00 82 1004.1
20191017211428 55 195 2.0 14.0 0.00 0.18 0.00 80 1004.3
20191017210928 55 246 2.0 14.0 0.00 0.18 0.00 81 1004.2
20191017210428 55 270 6.0 11.0 0.00 0.18 0.00 80 1004.4
20191017205928 56 226 4.0 12.0 0.00 0.18 0.00 80 1004.3
20191017205428 56 248 3.0 8.0 0.00 0.18 0.00 80 1004.3
20191017204928 56 238 1.0 14.0 0.00 0.18 0.00 80 1004.5
20191017204428 56 160 1.0 12.0 0.00 0.18 0.00 80 1004.3
20191017203928 56 249 3.0 12.0 0.00 0.18 0.00 78 1004.5
20191017203428 57 194 0.0 10.0 0.00 0.18 0.00 78 1004.4
20191017202928 58 101 2.0 10.0 0.00 0.18 0.00 77 1004.4
20191017202428 58 218 1.0 11.0 0.00 0.18 0.00 77 1004.4
20191017201928 58 200 2.0 22.0 0.00 0.18 0.00 77 1004.5
20191017201428 57 203 0.0 11.0 0.00 0.18 0.00 79 1004.4
20191017200928 57 225 2.0 12.0 0.00 0.18 0.00 80 1004.4
20191017200428 57 190 5.0 7.0 0.00 0.18 0.00 80 1004.4
20191017195928 56 117 1.0 15.0 0.00 0.18 0.00 80 1004.3
20191017195428 56 243 3.0 9.0 0.00 0.18 0.00 81 1004.3
20191017194930 56 225 0.0 16.0 0.00 0.18 0.00 83 1004.3
20191017194428 55 230 3.0 5.0 0.00 0.18 0.00 84 1004.3
20191017193928 54 248 2.0 9.0 0.00 0.18 0.00 83 1004.3
20191017193428 55 244 7.0 11.0 0.00 0.18 0.00 84 1004.2
20191017192928 55 224 0.0 11.0 0.00 0.18 0.00 83 1004.2
20191017192428 55 188 1.0 11.0 0.00 0.18 0.00 83 1004.1
20191017191928 55 205 9.0 14.0 0.00 0.18 0.00 83 1004.3
20191017191428 55 221 5.0 10.0 0.00 0.18 0.00 83 1004.1
20191017190928 54 215 0.0 14.0 0.00 0.18 0.00 85 1004.1
20191017190428 54 207 0.0 9.0 0.00 0.18 0.00 85 1004.1
20191017185928 54 230 0.0 8.0 0.00 0.18 0.00 86 1004.1
20191017185428 53 200 4.0 13.0 0.00 0.18 0.00 85 1004.1
20191017184928 54 261 6.0 8.0 0.00 0.18 0.00 85 1004.1
20191017184428 54 232 0.0 11.0 0.00 0.18 0.00 86 1004.0
20191017183928 53 210 3.0 14.0 0.00 0.18 0.00 86 1003.9
20191017183428 53 213 0.0 7.0 0.00 0.18 0.00 87 1004.0
20191017182928 53 202 2.0 9.0 0.00 0.18 0.00 87 1004.0
20191017182428 53 238 4.0 5.0 0.00 0.18 0.00 88 1004.1
20191017181928 53 226 0.0 10.0 0.00 0.18 0.00 88 1004.0
20191017181428 53 276 0.0 8.0 0.00 0.18 0.00 87 1004.1
20191017180928 53 183 2.0 9.0 0.00 0.18 0.00 87 1004.0
20191017180428 53 193 3.0 10.0 0.00 0.19 0.00 87 1004.0
20191017175928 53 173 5.0 9.0 0.00 0.20 0.00 87 1004.1
20191017175428 53 210 2.0 14.0 0.00 0.21 0.00 87 1004.1
20191017174929 53 156 0.0 11.0 0.00 0.21 0.00 88 1003.9
20191017174428 52 184 0.0 10.0 0.00 0.22 0.00 88 1003.8
20191017173928 52 223 0.0 8.0 0.00 0.23 0.00 89 1003.8
20191017173428 52 159 2.0 9.0 0.00 0.23 0.00 89 1003.9
20191017172928 51 194 9.0 7.0 0.00 0.23 0.00 90 1003.9
20191017172428 51 191 2.0 4.0 0.00 0.23 0.00 89 1003.9
20191017171928 51 115 6.0 6.0 0.00 0.23 0.00 90 1003.9
20191017171428 51 227 1.0 4.0 0.00 0.23 0.00 90 1003.9
20191017170928 51 149 0.0 5.0 0.00 0.22 0.00 89 1004.1
20191017170428 51 184 0.0 6.0 0.00 0.22 0.00 89 1004.1
20191017165928 51 194 0.0 5.0 0.00 0.22 0.00 89 1004.1
20191017165428 51 211 0.0 6.0 0.00 0.22 0.00 88 1004.1
20191017164928 51 119 0.0 11.0 0.00 0.22 0.00 88 1004.0
20191017164428 51 170 0.0 6.0 0.00 0.22 0.00 88 1004.1
20191017163928 51 251 2.0 10.0 0.00 0.22 0.00 87 1004.2
20191017163428 51 157 2.0 9.0 0.00 0.22 0.00 87 1004.1
20191017162928 51 175 3.0 11.0 0.00 0.22 0.00 87 1004.0
20191017162428 51 153 0.0 7.0 0.00 0.22 0.00 87 1004.0
20191017161928 51 156 0.0 8.0 0.00 0.22 0.00 86 1004.0
20191017161428 51 138 3.0 9.0 0.00 0.22 0.00 86 1004.0
20191017160928 51 176 0.0 7.0 0.00 0.22 0.00 86 1004.0
20191017160428 51 197 1.0 4.0 0.00 0.22 0.00 86 1003.9
20191017155928 51 206 2.0 7.0 0.00 0.22 0.00 86 1004.0
20191017155428 51 190 1.0 5.0 0.00 0.22 0.00 87 1003.8
20191017154928 50 72 3.0 6.0 0.00 0.22 0.00 87 1003.9
20191017154428 50 163 0.0 6.0 0.00 0.22 0.00 88 1003.8
20191017153928 50 160 0.0 2.0 0.00 0.22 0.00 88 1003.8
20191017153428 50 94 3.0 8.0 0.00 0.22 0.00 88 1003.6
20191017152928 50 146 1.0 7.0 0.00 0.22 0.00 88 1003.6
20191017152428 50 92 2.0 5.0 0.00 0.22 0.00 89 1003.7
20191017151928 50 194 0.0 4.0 0.00 0.22 0.00 89 1003.7
20191017151428 50 107 2.0 5.0 0.00 0.22 0.00 89 1003.7
20191017150928 50 146 0.0 5.0 0.00 0.22 0.00 89 1003.7
20191017150428 50 152 0.0 4.0 0.00 0.22 0.00 89 1003.7
20191017145928 50 126 3.0 6.0 0.00 0.23 0.00 89 1003.8
20191017145428 50 169 0.0 5.0 0.00 0.23 0.00 89 1003.8
20191017144928 50 154 1.0 6.0 0.00 0.23 0.00 89 1003.9
20191017144428 50 144 0.0 4.0 0.00 0.23 0.00 89 1003.8
20191017143928 50 136 0.0 2.0 0.00 0.22 0.00 88 1003.8
20191017143428 50 162 1.0 4.0 0.00 0.22 0.00 88 1003.8
20191017142928 50 151 4.0 5.0 0.00 0.23 0.00 88 1003.8
20191017142428 50 157 0.0 4.0 0.00 0.23 0.00 88 1003.9
20191017141928 50 167 5.0 5.0 0.00 0.23 0.00 88 1003.8
20191017141428 50 130 0.0 8.0 0.00 0.24 0.00 89 1003.9
20191017140928 50 232 0.0 5.0 0.00 0.24 0.00 89 1003.9
20191017140428 50 157 0.0 9.0 0.00 0.24 0.00 89 1003.9
20191017135928 50 268 6.0 5.0 0.00 0.25 0.00 89 1004.0
20191017135428 50 236 4.0 7.0 0.00 0.25 0.00 90 1004.0
20191017134928 50 209 2.0 7.0 0.00 0.26 0.00 90 1003.9
20191017134428 50 192 1.0 8.0 0.00 0.26 0.00 90 1003.9
20191017133928 50 184 0.0 8.0 0.00 0.26 0.00 90 1003.9
20191017133428 50 192 0.0 3.0 0.00 0.26 0.00 90 1004.1
20191017132928 50 210 0.0 4.0 0.00 0.26 0.00 90 1004.1
20191017132428 50 241 1.0 5.0 0.00 0.26 0.00 89 1004.2
20191017131928 50 194 1.0 4.0 0.00 0.26 0.00 89 1004.2
20191017131428 50 207 0.0 9.0 0.00 0.26 0.00 89 1004.2
20191017130928 50 161 0.0 4.0 0.00 0.26 0.00 89 1004.2
20191017130428 51 162 2.0 11.0 0.00 0.26 0.00 88 1004.1
20191017125928 51 209 1.0 5.0 0.00 0.26 0.00 88 1004.1
20191017125428 51 188 1.0 5.0 0.00 0.26 0.00 87 1004.2
20191017124928 51 184 5.0 10.0 0.00 0.25 0.00 87 1004.3
20191017124428 51 196 5.0 8.0 0.00 0.25 0.00 86 1004.4
20191017123928 51 172 0.0 7.0 0.00 0.25 0.00 87 1004.4
20191017123428 51 176 3.0 11.0 0.00 0.25 0.00 87 1004.5
20191017122928 51 219 3.0 6.0 0.00 0.25 0.00 87 1004.4
20191017122428 51 183 0.0 9.0 0.00 0.25 0.00 87 1004.4
20191017121928 51 205 0.0 4.0 0.00 0.26 0.00 87 1004.3
20191017121428 51 134 0.0 7.0 0.00 0.27 0.00 88 1004.4
20191017120928 51 222 4.0 5.0 0.00 0.28 0.00 88 1004.4
20191017120428 51 194 1.0 4.0 0.00 0.28 0.00 88 1004.5
20191017115928 51 180 0.0 6.0 0.00 0.28 0.00 88 1004.5
20191017115428 51 205 0.0 8.0 0.00 0.29 0.00 88 1004.4
20191017114928 51 196 2.0 7.0 0.00 0.29 0.00 88 1004.4
20191017114428 51 189 0.0 5.0 0.00 0.29 0.00 89 1004.4
20191017113928 51 169 0.0 7.0 0.00 0.29 0.00 89 1004.5
20191017113428 51 196 0.0 7.0 0.00 0.29 0.00 90 1004.4
20191017112928 51 210 4.0 5.0 0.00 0.30 0.00 90 1004.4
20191017112430 50 186 1.0 7.0 0.00 0.30 0.00 91 1004.4
20191017111928 50 200 4.0 11.0 0.00 0.30 0.00 91 1004.3
20191017111428 50 219 2.0 11.0 0.00 0.30 0.00 92 1004.4
20191017110928 50 192 0.0 3.0 0.00 0.30 0.00 92 1004.4
20191017110428 50 180 0.0 2.0 0.00 0.30 0.00 92 1004.4
20191017105928 50 180 0.0 3.0 0.00 0.30 0.00 92 1004.4
20191017105428 50 205 1.0 2.0 0.00 0.30 0.00 92 1004.4
20191017104928 50 213 0.0 2.0 0.00 0.30 0.00 92 1004.4
20191017104428 50 214 1.0 6.0 0.00 0.30 0.00 92 1004.5
20191017103928 50 191 0.0 4.0 0.00 0.30 0.00 92 1004.4
20191017103428 50 150 0.0 4.0 0.00 0.30 0.00 92 1004.5
20191017102928 50 166 1.0 4.0 0.00 0.30 0.00 93 1004.6
20191017102428 50 175 1.0 3.0 0.00 0.30 0.00 92 1004.7
20191017101928 50 105 0.0 3.0 0.00 0.30 0.00 92 1004.7
20191017101428 50 188 0.0 5.0 0.00 0.30 0.00 92 1004.7
20191017100928 50 185 0.0 4.0 0.00 0.30 0.00 92 1004.5
20191017100428 50 205 0.0 8.0 0.00 0.30 0.00 92 1004.5
20191017095928 50 198 1.0 6.0 0.00 0.30 0.00 92 1004.5
20191017095428 50 162 0.0 4.0 0.00 0.30 0.00 92 1004.7
20191017094928 50 144 0.0 4.0 0.00 0.30 0.00 92 1004.8
20191017094428 50 179 3.0 3.0 0.00 0.30 0.00 92 1004.8
20191017093930 50 169 0.0 2.0 0.00 0.30 0.00 92 1004.8
20191017093428 50 187 0.0 3.0 0.00 0.30 0.00 92 1004.9
20191017092928 50 227 3.0 4.0 0.00 0.30 0.00 92 1004.9
20191017092428 50 103 0.0 2.0 0.00 0.30 0.00 92 1004.8
20191017091928 50 115 1.0 3.0 0.00 0.30 0.00 92 1004.7
20191017091428 50 166 0.0 2.0 0.00 0.30 0.00 91 1004.7
20191017090928 51 199 0.0 3.0 0.00 0.30 0.00 91 1004.7
20191017090428 51 199 1.0 8.0 0.00 0.30 0.00 91 1004.7
20191017085928 51 229 0.0 2.0 0.00 0.30 0.00 91 1004.7
20191017085428 51 263 0.0 7.0 0.00 0.30 0.00 92 1004.7
20191017084928 51 192 0.0 10.0 0.00 0.30 0.00 92 1004.6
20191017084428 51 198 0.0 6.0 0.00 0.30 0.00 92 1004.5
20191017083928 51 206 2.0 6.0 0.00 0.30 0.00 92 1004.5
20191017083428 51 153 0.0 5.0 0.00 0.30 0.00 92 1004.6
20191017082928 51 248 3.0 10.0 0.00 0.30 0.00 92 1004.5
20191017082428 51 248 3.0 8.0 0.00 0.30 0.00 92 1004.5
20191017081928 51 161 0.0 5.0 0.00 0.30 0.00 92 1004.4
20191017081428 51 219 0.0 4.0 0.00 0.30 0.00 92 1004.6
20191017080930 51 123 2.0 4.0 0.00 0.30 0.00 92 1004.6
20191017080429 51 101 1.0 6.0 0.00 0.30 0.00 92 1004.6
20191017075928 51 153 0.0 11.0 0.00 0.30 0.00 92 1004.6
20191017075428 51 248 0.0 5.0 0.00 0.30 0.00 92 1004.6
20191017074928 51 242 2.0 6.0 0.00 0.30 0.00 92 1004.5
20191017074428 51 229 7.0 10.0 0.00 0.30 0.00 93 1004.4
20191017073928 51 186 0.0 6.0 0.00 0.30 0.00 93 1004.4
20191017073428 51 202 0.0 7.0 0.00 0.30 0.00 92 1004.5
20191017072928 51 190 1.0 6.0 0.00 0.30 0.00 92 1004.3
20191017072428 51 211 2.0 5.0 0.00 0.30 0.00 92 1004.2
20191017071928 51 155 0.0 5.0 0.00 0.30 0.00 92 1004.3
20191017071428 52 0 1.0 11.0 0.00 0.30 0.00 92 1004.2
20191017070928 52 214 3.0 10.0 0.00 0.30 0.00 92 1004.3